Time,TemperatureF,DewpointF,PressureIn,WindDirection,WindDirectionDegrees,WindSpeedMPH,WindSpeedGustMPH,Humidity,HourlyPrecipIn,Conditions,Clouds,dailyrainin,SoftwareType,DateUTC
2013-10-14 00:00:00,45.9,-9.1,30.43,North,0,0.0,0.0,9,0.00,,,0.00,WUHU216HW,2013-10-14 07:00:00,
2013-10-14 00:05:00,45.9,-9.1,30.43,North,0,0.0,0.0,9,0.00,,,0.00,WUHU216HW,2013-10-14 07:05:00,
2013-10-14 00:30:00,45.7,-14.3,30.43,North,0,0.0,0.0,7,0.00,,,0.00,WUHU216HW,2013-10-14 07:30:00,
2013-10-14 00:35:00,45.7,-14.3,30.43,North,0,0.0,0.0,7,0.00,,,0.00,WUHU216HW,2013-10-14 07:35:00,
2013-10-14 01:00:00,45.7,-9.3,30.42,North,0,0.0,0.0,9,0.00,,,0.00,WUHU216HW,2013-10-14 08:00:00,
2013-10-14 01:05:00,45.7,-9.3,30.42,North,0,0.0,0.0,9,0.00,,,0.00,WUHU216HW,2013-10-14 08:05:00,
2013-10-14 01:30:00,45.5,-14.5,30.43,North,0,0.0,0.0,7,0.00,,,0.00,WUHU216HW,2013-10-14 08:30:00,
2013-10-14 01:35:00,45.5,-14.5,30.43,North,0,0.0,0.0,7,0.00,,,0.00,WUHU216HW,2013-10-14 08:35:00,
2013-10-14 02:00:00,45.2,-14.7,30.43,North,0,0.0,0.0,7,0.00,,,0.00,WUHU216HW,2013-10-14 09:00:00,
2013-10-14 02:05:00,45.2,-14.7,30.43,North,0,0.0,0.0,7,0.00,,,0.00,WUHU216HW,2013-10-14 09:05:00,
2013-10-14 02:30:00,45.0,-20.9,30.43,North,0,0.0,0.0,5,0.00,,,0.00,WUHU216HW,2013-10-14 09:30:00,
2013-10-14 02:35:00,45.0,-20.9,30.43,North,0,0.0,0.0,5,0.00,,,0.00,WUHU216HW,2013-10-14 09:35:00,
2013-10-14 03:00:00,44.8,-32.7,30.43,North,0,0.0,0.0,2,0.00,,,0.00,WUHU216HW,2013-10-14 10:00:00,
2013-10-14 03:05:00,44.8,-32.7,30.43,North,0,0.0,0.0,2,0.00,,,0.00,WUHU216HW,2013-10-14 10:05:00,
2013-10-14 03:30:00,44.5,-32.9,30.43,North,0,0.0,0.0,2,0.00,,,0.00,WUHU216HW,2013-10-14 10:30:00,
2013-10-14 03:35:00,44.5,-32.9,30.43,North,0,0.0,0.0,2,0.00,,,0.00,WUHU216HW,2013-10-14 10:35:00,
2013-10-14 04:00:00,44.3,-37.8,30.43,North,0,0.0,0.0,1,0.00,,,0.00,WUHU216HW,2013-10-14 11:00:00,
2013-10-14 04:05:00,44.3,-37.8,30.43,North,0,0.0,0.0,1,0.00,,,0.00,WUHU216HW,2013-10-14 11:05:00,
2013-10-14 04:30:00,44.1,-37.9,30.43,North,0,0.0,0.0,1,0.00,,,0.00,WUHU216HW,2013-10-14 11:30:00,
2013-10-14 04:35:00,44.1,-37.9,30.43,North,0,0.0,0.0,1,0.00,,,0.00,WUHU216HW,2013-10-14 11:35:00,
2013-10-14 05:00:00,44.3,-37.8,30.44,North,0,0.0,0.0,1,0.00,,,0.00,WUHU216HW,2013-10-14 12:00:00,
2013-10-14 05:05:00,44.3,-37.8,30.44,North,0,0.0,0.0,1,0.00,,,0.00,WUHU216HW,2013-10-14 12:05:00,
2013-10-14 05:30:00,44.1,-37.9,30.44,North,0,0.0,0.0,1,0.00,,,0.00,WUHU216HW,2013-10-14 12:30:00,
2013-10-14 05:35:00,44.1,-37.9,30.44,North,0,0.0,0.0,1,0.00,,,0.00,WUHU216HW,2013-10-14 12:35:00,
2013-10-14 06:00:00,44.3,-37.8,30.44,North,0,0.0,0.0,1,0.00,,,0.00,WUHU216HW,2013-10-14 13:00:00,
2013-10-14 06:05:00,44.3,-37.8,30.44,North,0,0.0,0.0,1,0.00,,,0.00,WUHU216HW,2013-10-14 13:05:00,
2013-10-14 06:30:00,43.9,-38.1,30.45,North,0,0.0,0.0,1,0.00,,,0.00,WUHU216HW,2013-10-14 13:30:00,
2013-10-14 06:35:00,43.9,-38.1,30.45,North,0,0.0,0.0,1,0.00,,,0.00,WUHU216HW,2013-10-14 13:35:00,
2013-10-14 07:00:00,43.6,-38.3,30.46,North,0,0.0,0.0,1,0.00,,,0.00,WUHU216HW,2013-10-14 14:00:00,
2013-10-14 07:05:00,43.6,-38.3,30.46,North,0,0.0,0.0,1,0.00,,,0.00,WUHU216HW,2013-10-14 14:05:00,
2013-10-14 07:30:00,43.4,-33.6,30.46,North,0,0.0,0.0,2,0.00,,,0.00,WUHU216HW,2013-10-14 14:30:00,
2013-10-14 07:35:00,43.4,-33.6,30.46,North,0,0.0,0.0,2,0.00,,,0.00,WUHU216HW,2013-10-14 14:35:00,
2013-10-14 08:00:00,42.8,-38.8,30.47,North,0,0.0,0.0,1,0.00,,,0.00,WUHU216HW,2013-10-14 15:00:00,
2013-10-14 08:05:00,42.8,-38.8,30.47,North,0,0.0,0.0,1,0.00,,,0.00,WUHU216HW,2013-10-14 15:05:00,
2013-10-14 08:30:00,43.0,-38.6,30.48,North,0,0.0,0.0,1,0.00,,,0.00,WUHU216HW,2013-10-14 15:30:00,
2013-10-14 08:35:00,43.0,-38.6,30.48,North,0,0.0,0.0,1,0.00,,,0.00,WUHU216HW,2013-10-14 15:35:00,
2013-10-14 09:00:00,44.3,-37.8,30.48,North,0,0.0,0.0,1,0.00,,,0.00,WUHU216HW,2013-10-14 16:00:00,
2013-10-14 09:05:00,44.3,-37.8,30.48,North,0,0.0,0.0,1,0.00,,,0.00,WUHU216HW,2013-10-14 16:05:00,
2013-10-14 09:30:00,45.7,-36.9,30.48,North,0,0.0,0.0,1,0.00,,,0.00,WUHU216HW,2013-10-14 16:30:00,
2013-10-14 09:35:00,45.7,-36.9,30.48,North,0,0.0,0.0,1,0.00,,,0.00,WUHU216HW,2013-10-14 16:35:00,
2013-10-14 10:00:00,47.2,-31.1,30.48,North,0,0.0,0.0,2,0.00,,,0.00,WUHU216HW,2013-10-14 17:00:00,
2013-10-14 10:05:00,47.2,-31.1,30.48,North,0,0.0,0.0,2,0.00,,,0.00,WUHU216HW,2013-10-14 17:05:00,
2013-10-14 10:30:00,48.4,-1.1,30.48,North,0,0.0,0.0,13,0.00,,,0.00,WUHU216HW,2013-10-14 17:30:00,
2013-10-14 10:35:00,48.4,-1.1,30.48,North,0,0.0,0.0,13,0.00,,,0.00,WUHU216HW,2013-10-14 17:35:00,
2013-10-14 11:00:00,49.7,4.8,30.48,North,0,0.0,0.0,16,0.00,,,0.00,WUHU216HW,2013-10-14 18:00:00,
2013-10-14 11:05:00,49.7,4.8,30.48,North,0,0.0,0.0,16,0.00,,,0.00,WUHU216HW,2013-10-14 18:05:00,
2013-10-14 11:30:00,51.1,17.3,30.48,North,0,0.0,0.0,26,0.00,,,0.00,WUHU216HW,2013-10-14 18:30:00,
2013-10-14 11:35:00,51.1,17.3,30.48,North,0,0.0,0.0,26,0.00,,,0.00,WUHU216HW,2013-10-14 18:35:00,
2013-10-14 12:00:00,52.6,25.1,30.48,North,0,0.0,0.0,35,0.00,,,0.00,WUHU216HW,2013-10-14 19:00:00,
2013-10-14 12:05:00,52.6,25.1,30.48,North,0,0.0,0.0,35,0.00,,,0.00,WUHU216HW,2013-10-14 19:05:00,
2013-10-14 12:30:00,53.6,32.0,30.48,North,0,0.0,0.0,44,0.00,,,0.00,WUHU216HW,2013-10-14 19:30:00,
2013-10-14 12:35:00,53.6,32.0,30.48,North,0,0.0,0.0,44,0.00,,,0.00,WUHU216HW,2013-10-14 19:35:00,
2013-10-14 13:00:00,54.4,34.0,30.48,North,0,0.0,0.0,46,0.00,,,0.00,WUHU216HW,2013-10-14 20:00:00,
2013-10-14 13:05:00,54.4,34.0,30.48,North,0,0.0,0.0,46,0.00,,,0.00,WUHU216HW,2013-10-14 20:05:00,
2013-10-14 13:30:00,55.8,39.6,30.46,North,0,0.0,0.0,54,0.00,,,0.00,WUHU216HW,2013-10-14 20:30:00,
2013-10-14 13:35:00,55.8,39.6,30.46,North,0,0.0,0.0,54,0.00,,,0.00,WUHU216HW,2013-10-14 20:35:00,
2013-10-14 14:00:00,56.7,40.5,30.46,North,0,0.0,0.0,54,0.00,,,0.00,WUHU216HW,2013-10-14 21:00:00,
2013-10-14 14:02:00,56.7,40.5,30.46,North,0,0.0,0.0,54,0.00,,,0.00,WUHU216HW,2013-10-14 21:02:00,
2013-10-14 14:07:00,56.7,40.5,30.46,North,0,0.0,0.0,54,0.00,,,0.00,WUHU216HW,2013-10-14 21:07:00,
2013-10-14 14:30:00,57.8,42.5,30.45,North,0,0.0,0.0,56,0.00,,,0.00,WUHU216HW,2013-10-14 21:30:00,
2013-10-14 14:35:00,57.8,42.5,30.45,North,0,0.0,0.0,56,0.00,,,0.00,WUHU216HW,2013-10-14 21:35:00,
2013-10-14 15:00:00,58.5,41.1,30.44,North,0,0.0,0.0,52,0.00,,,0.00,WUHU216HW,2013-10-14 22:00:00,
2013-10-14 15:05:00,58.5,41.1,30.44,North,0,0.0,0.0,52,0.00,,,0.00,WUHU216HW,2013-10-14 22:05:00,
2013-10-14 15:30:00,59.0,38.8,30.44,North,0,0.0,0.0,47,0.00,,,0.00,WUHU216HW,2013-10-14 22:30:00,
2013-10-14 15:35:00,59.0,38.8,30.44,North,0,0.0,0.0,47,0.00,,,0.00,WUHU216HW,2013-10-14 22:35:00,
2013-10-14 16:00:00,59.4,36.7,30.43,North,0,0.0,0.0,43,0.00,,,0.00,WUHU216HW,2013-10-14 23:00:00,
2013-10-14 16:05:00,59.4,36.7,30.43,North,0,0.0,0.0,43,0.00,,,0.00,WUHU216HW,2013-10-14 23:05:00,
2013-10-14 16:30:00,59.2,35.9,30.44,North,0,0.0,0.0,42,0.00,,,0.00,WUHU216HW,2013-10-14 23:30:00,
2013-10-14 16:35:00,59.2,35.9,30.44,North,0,0.0,0.0,42,0.00,,,0.00,WUHU216HW,2013-10-14 23:35:00,
2013-10-14 17:00:00,58.7,34.8,30.43,North,0,0.0,0.0,41,0.00,,,0.00,WUHU216HW,2013-10-15 00:00:00,
2013-10-14 17:05:00,58.7,34.8,30.43,North,0,0.0,0.0,41,0.00,,,0.00,WUHU216HW,2013-10-15 00:05:00,
2013-10-14 17:30:00,57.6,33.1,30.43,North,0,0.0,0.0,40,0.00,,,0.00,WUHU216HW,2013-10-15 00:30:00,
2013-10-14 17:35:00,57.6,33.1,30.43,North,0,0.0,0.0,40,0.00,,,0.00,WUHU216HW,2013-10-15 00:35:00,
2013-10-14 18:00:00,56.5,28.6,30.44,North,0,0.0,0.0,35,0.00,,,0.00,WUHU216HW,2013-10-15 01:00:00,
2013-10-14 18:05:00,56.5,28.6,30.44,North,0,0.0,0.0,35,0.00,,,0.00,WUHU216HW,2013-10-15 01:05:00,
2013-10-14 18:30:00,55.4,22.8,30.44,North,0,0.0,0.0,28,0.00,,,0.00,WUHU216HW,2013-10-15 01:30:00,
2013-10-14 18:35:00,55.4,22.8,30.44,North,0,0.0,0.0,28,0.00,,,0.00,WUHU216HW,2013-10-15 01:35:00,
2013-10-14 19:00:00,53.6,16.5,30.44,North,0,0.0,0.0,23,0.00,,,0.00,WUHU216HW,2013-10-15 02:00:00,
2013-10-14 19:05:00,53.6,16.5,30.44,North,0,0.0,0.0,23,0.00,,,0.00,WUHU216HW,2013-10-15 02:05:00,
2013-10-14 19:30:00,52.2,8.3,30.44,North,0,0.0,0.0,17,0.00,,,0.00,WUHU216HW,2013-10-15 02:30:00,
2013-10-14 19:35:00,52.2,8.3,30.44,North,0,0.0,0.0,17,0.00,,,0.00,WUHU216HW,2013-10-15 02:35:00,
2013-10-14 20:00:00,50.9,-1.0,30.44,North,0,0.0,0.0,12,0.00,,,0.00,WUHU216HW,2013-10-15 03:00:00,
2013-10-14 20:05:00,50.9,-1.0,30.44,North,0,0.0,0.0,12,0.00,,,0.00,WUHU216HW,2013-10-15 03:05:00,
2013-10-14 20:30:00,50.0,-11.1,30.44,North,0,0.0,0.0,7,0.00,,,0.00,WUHU216HW,2013-10-15 03:30:00,
2013-10-14 20:35:00,50.0,-11.1,30.44,North,0,0.0,0.0,7,0.00,,,0.00,WUHU216HW,2013-10-15 03:35:00,
2013-10-14 21:00:00,50.4,-33.8,30.45,North,0,0.0,0.0,1,0.00,,,0.00,WUHU216HW,2013-10-15 04:00:00,
2013-10-14 21:01:00,50.4,-33.8,30.45,North,0,0.0,0.0,1,0.00,,,0.00,WUHU216HW,2013-10-15 04:01:00,
2013-10-14 21:02:00,50.4,-33.8,30.45,North,0,0.0,0.0,1,0.00,,,0.00,WUHU216HW,2013-10-15 04:02:00,
2013-10-14 21:03:00,50.4,-33.8,30.45,North,0,0.0,0.0,1,0.00,,,0.00,WUHU216HW,2013-10-15 04:03:00,
2013-10-14 21:08:00,50.4,-33.8,30.45,North,0,0.0,0.0,1,0.00,,,0.00,WUHU216HW,2013-10-15 04:08:00,
2013-10-14 21:30:00,50.4,-33.8,30.45,North,0,0.0,0.0,1,0.00,,,0.00,WUHU216HW,2013-10-15 04:30:00,
2013-10-14 21:35:00,50.4,-33.8,30.45,North,0,0.0,0.0,1,0.00,,,0.00,WUHU216HW,2013-10-15 04:35:00,
2013-10-14 22:00:00,49.3,-34.5,30.45,North,0,0.0,0.0,1,0.00,,,0.00,WUHU216HW,2013-10-15 05:00:00,
2013-10-14 22:05:00,49.3,-34.5,30.45,North,0,0.0,0.0,1,0.00,,,0.00,WUHU216HW,2013-10-15 05:05:00,
2013-10-14 22:30:00,47.9,-35.4,30.45,North,0,0.0,0.0,1,0.00,,,0.00,WUHU216HW,2013-10-15 05:30:00,
2013-10-14 22:35:00,47.9,-35.4,30.45,North,0,0.0,0.0,1,0.00,,,0.00,WUHU216HW,2013-10-15 05:35:00,
2013-10-14 23:00:00,47.2,-35.9,30.45,North,0,0.0,0.0,1,0.00,,,0.00,WUHU216HW,2013-10-15 06:00:00,
2013-10-14 23:05:00,47.2,-35.9,30.45,North,0,0.0,0.0,1,0.00,,,0.00,WUHU216HW,2013-10-15 06:05:00,
2013-10-14 23:30:00,46.6,-36.3,30.45,North,0,0.0,0.0,1,0.00,,,0.00,WUHU216HW,2013-10-15 06:30:00,
2013-10-14 23:35:00,46.6,-36.3,30.45,North,0,0.0,0.0,1,0.00,,,0.00,WUHU216HW,2013-10-15 06:35:00,